Regional Weather Roundup
Issued by NWS

Home | Current Version | Previous Version | Text Only | Print | Product List | Glossary Off
Versions: 1 2 3 4 5 6 7 8 9 10 11 12 13 14 15 16 17 18 19 20 21 22 23 24 25 26 27 28 29 30 31 32 33 34 35 36 37 38 39 40 41 42 43 44 45 46 47 48 49 50

000
ASUS43 KOAX 251610
RWRNE

WEATHER ROUNDUP FOR NEBRASKA
NATIONAL WEATHER SERVICE OMAHA NE
1100 AM CDT SAT APR 25 2015

NOTES: SATELLITE DATA IS BEING USED TO AUGMENT CLOUD COVER ABOVE
       12000 FEET.
       "FAIR" INDICATES FEW OR NO CLOUDS BELOW 12,000 FEET WITH NO
       SIGNIFICANT WEATHER AND/OR OBSTRUCTIONS TO VISIBILITY.

  * THESE STATIONS DO NOT REPORT WEATHER SUCH AS RAIN...SNOW OR FOG.

NEZ001>004-019>022-054>056-251700-
NEBRASKA PANHANDLE

CITY           SKY/WX    TMP DP  RH WIND       PRES   REMARKS
SCOTTSBLUFF    SUNNY     58  32  37 VRB5      29.72S
ALLIANCE       SUNNY     59  46  62 VRB6      29.71R
CHADRON        SUNNY     57  46  66 W3        29.71R
KIMBALL        SUNNY     58  39  49 N3        29.72S
SIDNEY         SUNNY     60  45  57 N9        29.73R
$$

NEZ057>060-069>072-079>082-251700-
SOUTHWEST NEBRASKA

CITY           SKY/WX    TMP DP  RH WIND       PRES   REMARKS
IMPERIAL       SUNNY     60  46  59 N10       29.70R
LEXINGTON      MOSUNNY   61  52  72 N12       29.66S
MCCOOK         SUNNY     63  51  65 NE12      29.68R
OGALLALA       SUNNY     60  49  68 NE7       29.70R
$$

NEZ005>010-023>029-035>040-094-251700-
NORTH CENTRAL NEBRASKA

CITY           SKY/WX    TMP DP  RH WIND       PRES   REMARKS
VALENTINE      CLOUDY    55  48  77 CALM      29.71R
AINSWORTH      CLOUDY    56  50  79 NE10      29.71R
BROKEN BOW     PTSUNNY   57  50  77 N12       29.67R
O`NEILL        FOG       48  47  99 NE13      29.71R VSB 1/4
ORD            CLOUDY    53  49  86 N14       29.66R
THEDFORD       CLOUDY    55  50  83 NE9       29.71S
$$

NEZ041-046>049-061>064-073>077-083>087-251700-
SOUTH CENTRAL NEBRASKA

CITY           SKY/WX    TMP DP  RH WIND       PRES   REMARKS
GRAND ISLAND   CLOUDY    50  47  89 NE14      29.66R
AURORA         CLOUDY    49  49 100 N15       29.65R
HASTINGS       CLOUDY    51  49  92 NE17      29.64R FOG
HEBRON         CLOUDY    53  51  91 N9        29.61R
HOLDREGE       CLOUDY    58  51  76 N16       29.66R
KEARNEY *      CLOUDY    54  50  87 N15       29.66R
YORK           CLOUDY    50  48  93 N15       29.64R
$$

NEZ011>018-030>034-042>045-251700-
NORTHEAST NEBRASKA

CITY           SKY/WX    TMP DP  RH WIND       PRES   REMARKS
NORFOLK        CLOUDY    47  44  90 NE12      29.68R FOG
ALBION         CLOUDY    46  45  93 NE10      29.68R
BLAIR          CLOUDY    47  44  90 NE13      29.61R
COLUMBUS *     CLOUDY    48  41  76 NE18      29.66R
FREMONT        CLOUDY    48  46  90 NE12      29.64R
TEKAMAH        CLOUDY    49  45  86 NE13      29.66R
WAYNE          CLOUDY    47  45  90 NE14      29.69R FOG
$$

NEZ050>053-065>068-078-088>093-251700-
SOUTHEAST NEBRASKA

CITY           SKY/WX    TMP DP  RH WIND       PRES   REMARKS
LINCOLN        CLOUDY    51  48  89 N14G22    29.63R
OMAHA EPPLEY   CLOUDY    49  45  86 NE16      29.63R
BEATRICE       CLOUDY    53  51  92 N8        29.59R
FALLS CITY     CLOUDY    55  54  96 NE13      29.51R FOG
NEBRASKA CITY  CLOUDY    51  51 100 NE14      29.56R
PLATTSMOUTH    CLOUDY    49  47  93 NE13      29.58R
$$

NEZ044-045-051>053-067-251700-
OMAHA AREA

CITY           SKY/WX    TMP DP  RH WIND       PRES   REMARKS
OMAHA EPPLEY   CLOUDY    49  45  86 NE16      29.63R
BLAIR          CLOUDY    47  44  90 NE13      29.61R
FREMONT        CLOUDY    48  46  90 NE12      29.64R
MILLARD        CLOUDY    49  46  90 N8        29.61R
OFFUTT AFB     CLOUDY    48  46  93 NE14      29.59R
PLATTSMOUTH    CLOUDY    49  47  93 NE13      29.58R
WAHOO          CLOUDY    49  45  87 N18       29.62R
$$



USA.gov is the U.S. government's official web portal to all federal, state and local government web resources and services.